GEFSSE_500_meanwind_360.txt.gz
Wind_Speed
1 1 1 2 2 2 2 3 3 4 4 4 4 4 4 4 4 3 3 3 3 4 4 4 4 5 6 6 6 6 6 5 4 4 4 5 5 5 6 7 7 7 7
2 2 2 3 3 3 4 4 4 4 5 5 5 4 5 5 4 3 4 5 5 5 5 5 5 5 6 6 6 6 6 5 5 4 5 4 4 4 5 7 6 6 7
3 3 3 4 4 5 5 6 6 6 6 6 6 5 5 5 5 5 5 6 6 5 5 5 5 6 6 6 6 6 6 6 6 5 5 4 4 4 5 6 6 6 6
4 4 4 4 5 6 6 7 7 7 7 7 7 7 6 7 7 7 7 7 7 7 6 6 6 7 7 7 7 7 7 7 6 5 5 4 4 4 5 5 6 6 6
4 5 5 5 5 6 6 7 7 8 7 7 7 8 7 8 9 9 9 8 7 7 7 7 6 7 7 7 7 7 7 7 7 7 6 6 5 5 5 6 6 6 7
5 6 6 6 6 6 7 7 8 8 8 8 8 8 8 9 10 9 8 8 8 8 7 7 7 7 7 7 7 7 8 8 8 7 6 6 7 7 6 6 7 7 7
6 6 7 7 7 7 8 8 8 8 8 8 8 7 8 8 8 7 7 8 8 9 8 8 9 8 7 7 6 7 7 7 7 7 7 7 8 8 8 8 8 8 8
6 7 8 9 9 8 8 8 7 7 8 7 7 7 7 7 7 6 6 7 8 8 9 9 9 9 7 7 7 7 7 7 6 6 7 7 8 8 9 8 8 9 9
7 8 9 9 8 8 7 8 7 7 7 7 6 6 7 6 6 6 6 7 8 8 8 9 9 9 9 9 8 8 8 7 7 8 8 8 8 8 9 8 8 9 10
8 9 9 9 8 7 7 7 7 7 7 6 6 6 6 6 6 6 7 7 7 8 8 8 8 8 9 9 8 8 8 8 9 8 9 10 10 10 9 9 9 9 10
9 8 8 8 8 7 7 6 7 6 6 6 6 7 6 5 6 7 7 7 7 8 8 7 7 8 8 9 9 9 9 9 10 9 9 10 10 10 10 10 10 10 10
8 8 7 7 7 7 7 7 7 7 6 6 7 6 6 6 6 7 8 8 8 8 7 7 7 8 8 9 9 10 11 11 10 10 9 9 9 9 9 10 11 11 11
8 8 7 7 6 7 6 7 6 6 6 6 6 6 6 7 7 8 8 8 8 8 8 8 8 8 8 9 10 11 12 13 12 11 11 11 10 9 9 9 10 10 11
8 8 7 7 7 6 6 7 6 6 7 7 7 7 7 8 8 8 8 8 8 8 9 8 9 9 9 10 10 11 12 12 13 13 12 11 11 11 10 9 10 10 11
8 8 7 8 7 6 6 7 7 7 7 8 8 8 8 9 9 9 9 8 8 9 9 9 9 10 10 10 10 11 11 11 12 13 13 12 11 11 11 10 10 10 10
7 7 7 7 7 7 7 8 7 8 8 9 9 9 9 9 10 10 10 10 9 9 9 10 10 10 11 10 11 11 11 11 12 12 13 12 11 11 11 11 11 11 10
7 7 7 7 7 8 8 8 8 9 10 9 9 9 9 9 10 10 10 10 10 10 11 10 10 10 11 11 11 11 11 11 11 12 12 12 12 11 11 11 11 11 11
7 7 7 7 8 8 9 9 9 10 10 10 10 9 10 10 11 11 11 11 11 11 11 11 11 12 11 11 11 11 10 11 11 11 11 12 12 12 11 11 11 11 11
8 8 8 8 9 9 10 10 10 11 11 10 10 10 11 12 12 12 12 11 11 12 12 12 12 12 12 12 12 11 11 11 11 11 11 12 12 12 12 11 11 12 12
9 9 9 10 10 11 11 11 12 12 13 12 12 11 12 12 12 12 12 12 12 12 12 12 12 12 12 12 13 13 12 12 12 12 13 13 13 13 14 13 13 12 12
10 10 10 10 10 11 11 12 13 13 13 13 13 13 12 12 13 13 13 13 12 12 12 13 13 13 13 13 14 13 13 13 13 13 14 14 15 14 15 14 14 13 13
10 10 10 10 11 11 12 12 13 14 14 14 14 14 14 13 13 14 13 13 13 13 13 13 13 14 14 14 14 14 14 14 13 14 14 14 15 15 15 14 13 13 13
10 10 11 11 12 12 12 13 14 14 15 15 15 15 16 15 15 15 15 15 15 15 14 14 14 14 14 14 14 14 14 14 14 14 14 14 15 15 15 14 14 13 13
11 11 12 12 13 12 13 13 14 14 15 16 16 16 16 16 16 16 15 15 16 16 15 15 15 15 15 15 15 15 15 14 14 14 15 15 15 15 15 15 14 14 14
11 12 12 12 13 13 14 14 14 15 15 15 16 16 16 16 17 17 17 16 16 17 17 17 16 16 16 16 16 16 15 15 15 15 14 14 15 15 15 15 15 15 15
12 12 12 12 13 14 15 15 15 15 15 16 16 16 16 16 17 17 17 18 18 18 17 17 17 17 17 17 16 16 16 16 16 16 15 14 15 16 16 16 16 16 16

GEFSSE_500_meanwind_366.txt.gz
Wind_Speed
1 2 2 2 2 3 4 4 4 4 4 5 5 6 5 5 5 4 4 2 1 1 2 3 4 5 5 6 5 4 4 4 3 4 4 4 5 5 6 6 7 7 7
2 2 3 2 3 3 4 4 5 4 4 5 5 5 5 4 4 4 3 2 1 0 1 3 4 4 5 6 5 4 4 4 4 4 4 5 5 6 6 7 7 8 7
3 3 3 3 4 4 5 5 5 5 5 5 6 5 5 5 5 4 4 3 2 2 2 2 3 4 4 5 5 5 4 4 5 5 4 5 5 5 6 7 7 7 7
4 4 4 4 4 5 5 6 6 6 6 6 6 6 6 6 6 5 4 4 4 3 4 4 5 5 5 5 5 5 5 5 5 5 5 5 5 5 5 6 6 7 7
5 5 5 5 5 5 6 6 6 6 6 6 6 6 6 6 5 5 6 6 6 5 5 5 6 6 6 6 6 6 6 6 6 6 6 6 6 5 5 6 7 7 7
6 6 5 6 6 6 6 6 6 7 7 7 6 7 7 7 7 7 6 7 7 7 8 7 7 7 7 8 7 7 7 7 6 6 6 6 6 6 6 6 6 7 7
7 7 7 7 7 7 7 6 6 6 6 6 6 7 7 7 7 9 9 7 7 7 7 7 8 8 8 8 8 8 7 7 7 6 6 7 7 7 7 7 7 7 7
8 8 8 8 8 8 7 7 7 7 7 7 6 6 6 7 7 8 7 5 5 6 6 6 7 8 7 8 8 8 8 8 7 6 6 7 8 8 8 8 8 8 8
9 9 9 9 9 8 8 8 7 7 7 6 6 6 6 6 6 6 5 4 5 5 6 6 7 6 7 7 8 8 8 8 8 7 7 7 8 8 8 9 9 9 9
9 9 9 9 9 9 8 8 8 7 6 6 5 5 6 6 6 6 5 5 5 5 5 6 6 7 6 7 7 7 8 8 9 8 7 7 8 9 8 9 9 9 10
9 9 9 9 9 8 8 8 7 7 6 6 5 5 6 6 6 5 5 5 5 6 6 6 6 7 6 7 7 7 8 8 8 8 8 8 8 9 9 10 10 10 11
9 8 8 8 8 8 8 8 7 7 7 7 6 6 6 6 6 6 5 6 6 6 6 6 7 7 7 7 7 7 8 8 8 8 8 8 9 9 10 10 10 9 11
9 8 8 8 7 7 7 8 8 8 8 8 8 8 8 7 7 7 7 7 7 7 7 7 7 7 8 8 8 8 8 9 9 9 9 9 9 10 10 10 9 10 10
8 9 9 9 7 7 7 8 8 8 8 9 9 9 9 8 9 8 8 9 8 8 7 7 8 8 8 8 9 10 10 10 10 10 10 10 10 10 10 10 9 10 11
8 8 8 8 8 8 7 7 8 8 8 9 9 9 9 9 9 9 9 9 9 9 8 8 8 8 8 8 9 10 10 11 11 10 10 11 11 11 10 10 10 11 11
9 8 8 7 8 7 7 8 8 8 9 8 8 8 9 9 10 10 9 9 9 9 9 9 9 9 9 9 10 10 10 11 11 11 12 12 12 12 11 12 12 11 11
8 8 7 7 7 8 8 8 9 9 9 9 9 9 10 10 10 10 10 9 9 9 9 10 9 10 10 10 10 10 10 11 11 11 12 12 12 12 12 12 12 12 11
8 8 8 8 8 9 9 9 9 9 9 10 10 10 10 11 11 11 11 10 10 10 10 11 11 11 10 10 11 11 11 11 11 11 12 12 13 13 12 13 13 13 12
9 8 8 9 9 9 10 11 11 10 10 10 11 11 11 11 11 10 11 11 11 11 11 11 11 11 11 11 11 11 11 11 11 12 12 13 13 13 13 13 13 12 13
9 9 9 9 9 10 10 10 10 10 10 11 11 11 10 10 10 10 11 11 12 12 12 12 12 12 12 12 11 11 11 12 12 13 13 13 14 14 13 13 13 14 14
10 10 10 9 9 10 10 10 11 11 11 12 12 12 11 11 11 11 12 12 12 12 12 13 13 13 13 12 12 12 12 13 13 13 13 14 13 14 14 14 14 15 15
11 11 10 9 10 10 11 11 11 12 12 13 13 13 13 13 12 12 12 13 13 13 13 13 13 14 13 13 13 13 13 13 13 13 13 14 14 14 14 15 15 16 16
11 11 10 10 10 11 11 12 12 12 13 13 13 13 13 14 14 13 13 14 13 13 13 13 13 13 13 14 14 14 14 14 14 14 14 14 15 15 15 16 16 16 16
12 12 12 11 12 12 12 12 12 13 13 14 14 14 14 14 14 14 14 15 15 14 14 14 14 14 15 15 15 14 15 15 14 15 15 15 15 15 15 15 16 16 17
13 13 13 13 13 13 13 13 13 13 13 14 14 14 14 15 15 15 15 16 16 15 15 15 16 16 16 16 16 16 16 16 16 17 16 16 16 16 16 16 16 17 17
13 14 14 14 14 14 13 13 13 13 13 14 14 14 14 15 16 16 15 15 16 16 16 16 16 16 16 17 18 18 18 18 18 18 18 17 17 17 17 17 17 17 17

GEFSSE_500_meanwind_372.txt.gz
Wind_Speed
1 0 1 1 0 1 1 2 3 3 2 2 2 3 3 2 2 1 2 5 6 6 7 7 8 8 9 9 9 8 8 7 6 6 5 6 6 5 5 5 6 6 6
1 1 1 1 1 2 2 3 3 4 3 3 3 2 2 1 1 1 2 5 6 7 7 7 8 8 9 9 9 8 8 8 7 6 6 6 6 6 5 5 7 7 7
2 2 2 2 2 3 3 4 4 4 4 3 2 2 1 0 1 1 2 4 5 7 7 7 8 8 8 10 9 9 9 8 7 6 6 6 6 6 7 7 7 7 8
2 2 3 2 3 3 4 4 4 5 4 3 3 3 3 2 1 1 2 3 5 6 7 8 8 8 8 9 10 10 10 9 7 7 7 7 7 7 8 8 8 8 8
3 3 3 4 4 4 4 4 4 5 5 4 4 4 4 3 3 2 3 3 5 6 7 8 9 9 9 9 9 10 10 9 8 8 8 7 7 7 8 9 8 8 9
4 4 5 5 5 5 5 5 5 5 6 6 5 5 5 5 4 4 5 5 6 7 8 9 9 10 10 10 10 10 10 10 8 8 8 8 7 6 7 8 9 8 9
5 5 6 6 6 6 6 6 6 6 6 6 5 6 6 6 5 6 6 6 6 8 9 10 11 11 11 12 11 11 11 10 9 9 9 8 7 6 7 8 9 8 9
6 6 7 7 7 7 7 7 7 6 6 6 5 6 6 6 6 6 7 8 9 9 10 10 10 10 10 11 11 11 12 11 10 9 9 8 8 8 7 7 8 9 10
7 7 7 7 7 7 7 7 7 7 6 6 6 6 6 6 6 6 7 7 6 7 9 9 9 9 9 10 10 10 11 11 10 10 9 8 8 8 7 8 8 9 10
7 7 7 7 7 7 8 8 8 7 7 7 7 6 6 7 6 6 5 5 3 4 6 7 8 7 9 9 8 8 9 9 9 8 8 7 8 8 8 8 8 8 9
7 7 6 7 7 7 8 8 8 8 8 8 8 8 8 8 7 6 5 4 3 3 5 6 7 7 8 8 8 8 9 9 9 9 8 8 8 8 8 9 9 9 10
8 8 7 7 7 7 8 8 9 8 8 8 8 8 8 8 8 7 6 5 4 5 5 6 6 7 7 7 8 9 9 9 9 10 9 9 9 9 9 10 10 11 12
9 8 8 8 8 8 9 9 9 9 9 9 9 9 9 9 8 7 7 6 6 7 6 6 6 6 7 7 8 8 9 9 9 10 9 9 10 10 10 11 11 11 11
9 9 9 9 9 9 10 10 10 10 10 10 10 10 10 9 9 8 8 8 8 7 7 7 7 7 7 8 9 9 10 10 10 10 10 11 11 10 11 11 12 12 12
9 9 9 9 10 10 11 11 11 11 11 11 11 10 10 9 10 9 9 9 9 8 9 9 9 8 8 9 9 10 10 10 11 11 11 11 12 12 11 11 12 12 11
10 10 9 9 10 11 11 11 11 11 11 11 10 10 10 10 10 9 9 9 9 9 9 9 9 10 10 10 11 11 11 11 11 12 12 12 12 12 12 12 13 12 11
11 11 11 10 11 11 11 11 11 11 11 11 11 10 10 10 10 10 9 9 9 9 9 9 9 9 10 10 10 11 11 11 12 12 12 12 12 12 12 12 12 11 11
11 11 12 12 11 11 11 10 10 10 11 11 11 10 9 9 9 9 10 10 10 10 10 10 11 11 11 11 11 11 11 12 12 13 13 13 13 13 13 12 12 11 11
11 11 11 11 12 11 11 10 9 10 11 11 11 11 10 10 9 9 10 11 11 10 11 11 11 12 12 12 12 12 12 12 13 13 13 14 14 14 14 14 13 13 13
11 12 12 11 11 12 11 10 10 10 10 11 11 11 11 10 10 10 10 11 11 11 12 12 12 12 12 12 12 12 12 12 12 12 13 13 14 14 15 15 14 14 14
12 12 12 12 12 11 11 10 11 11 11 11 11 11 11 11 11 11 11 11 12 12 12 12 13 13 13 12 13 13 13 13 12 13 12 13 13 14 14 14 14 14 14
12 12 12 12 12 11 11 11 11 11 11 11 11 12 12 12 12 11 12 12 12 13 13 13 13 13 13 14 14 14 13 13 13 13 13 13 14 14 15 15 15 15 16
13 12 12 12 12 12 11 12 11 11 11 11 11 12 12 12 13 12 12 13 13 13 13 13 12 13 13 14 15 15 14 14 14 15 15 15 15 15 15 15 16 17 17
13 13 13 13 13 13 12 12 12 12 12 12 11 12 12 13 13 13 13 13 13 13 13 14 13 14 14 15 15 15 15 15 15 15 16 16 16 16 16 17 18 18 18
13 13 13 13 13 13 13 13 13 12 12 12 12 12 12 13 13 14 14 14 13 13 14 14 14 15 15 16 16 16 16 16 16 16 17 17 17 17 17 18 19 19 19
14 13 13 14 13 13 13 13 13 13 13 13 13 13 13 14 14 15 14 14 14 14 15 15 15 16 16 16 17 17 18 18 18 18 18 19 19 19 19 19 20 20 20

GEFSSE_500_meanwind_378.txt.gz
Wind_Speed
2 2 3 3 3 4 4 5 5 5 5 6 6 6 5 5 5 5 4 5 6 7 8 7 7 6 7 7 8 7 7 6 5 4 4 4 4 4 4 4 4 4 3
3 3 4 4 4 4 5 6 6 6 5 6 5 5 4 4 4 3 4 5 7 7 8 8 7 7 7 8 8 8 7 6 6 5 5 5 5 5 5 4 4 4 4
3 4 4 4 5 5 6 6 7 6 6 6 5 4 4 4 3 2 5 5 6 7 8 8 8 7 7 7 8 8 8 7 7 6 6 6 7 7 6 6 6 5 5
4 4 5 5 6 7 7 7 6 6 6 6 5 5 5 4 2 3 4 5 6 6 7 8 9 9 8 8 9 10 9 9 8 8 7 7 7 7 8 8 8 7 7
5 5 6 6 7 7 7 7 7 7 7 6 6 6 6 5 4 3 4 5 6 6 7 9 9 10 9 9 9 10 11 10 9 9 9 8 8 7 8 9 9 8 8
5 6 6 6 7 7 7 7 7 7 8 7 7 7 7 6 6 5 5 6 7 7 8 9 10 10 11 11 11 11 11 11 11 11 10 9 8 8 9 9 9 9 9
6 7 6 7 7 7 7 8 8 8 8 8 8 7 8 8 7 6 7 8 8 8 9 10 11 12 13 12 11 12 12 11 13 12 11 9 9 8 8 9 9 9 9
7 7 7 8 7 7 8 9 9 9 9 9 8 8 8 8 8 7 7 7 7 8 10 10 10 11 12 12 12 12 13 12 12 11 11 10 9 9 8 8 8 9 9
7 8 8 8 8 8 9 9 9 9 9 9 8 8 8 8 8 8 7 8 9 10 10 10 11 11 11 11 11 11 12 11 11 10 9 8 9 8 8 7 7 8 8
8 9 9 8 8 9 9 9 9 9 8 8 9 9 8 8 8 8 8 8 9 10 11 11 11 11 11 10 10 11 11 11 10 9 9 8 8 8 8 7 7 7 8
10 10 10 9 9 9 9 9 9 9 9 9 9 9 9 9 8 8 8 8 9 8 9 10 10 9 9 9 9 10 10 10 10 9 9 9 9 8 8 8 9 8 9
11 10 10 10 9 9 9 9 9 10 10 10 10 9 10 10 9 8 9 9 8 7 7 8 8 9 9 8 8 8 9 9 8 8 8 9 8 8 8 9 9 10 10
11 11 11 10 10 10 10 10 10 10 10 10 10 10 10 10 10 9 9 9 8 7 7 8 8 8 9 8 8 8 8 8 8 9 8 8 9 9 9 9 10 10 11
10 10 10 11 10 11 11 11 11 11 11 11 11 11 11 11 11 11 10 9 9 8 8 8 8 8 9 9 8 9 9 9 9 9 9 10 10 10 10 10 10 11 11
9 10 10 10 11 11 11 10 11 11 11 11 11 11 11 11 12 11 11 10 9 9 9 9 9 9 9 9 9 9 9 10 10 11 11 11 11 11 11 11 10 10 10
10 10 10 10 11 11 11 11 12 11 12 12 12 12 12 11 12 12 11 10 9 9 9 9 9 9 10 10 10 9 9 10 10 10 10 11 11 11 10 10 10 10 10
10 11 11 11 12 12 12 12 12 13 13 13 13 13 12 12 12 12 11 10 10 9 9 9 8 9 10 10 10 10 10 10 10 10 10 11 11 11 10 10 10 10 10
12 12 12 12 13 13 13 13 13 13 13 13 13 13 13 12 12 12 11 11 10 10 9 9 9 10 10 11 11 11 11 11 10 10 11 11 11 11 11 11 11 11 11
12 13 13 13 13 13 13 13 13 13 13 13 14 13 12 12 12 12 12 11 10 10 10 10 11 11 11 11 11 11 11 12 11 11 11 12 12 12 12 12 12 12 12
13 13 14 14 14 14 14 13 13 13 14 14 14 13 13 12 12 12 11 11 10 10 10 10 11 11 11 11 11 11 12 12 12 12 12 12 13 13 13 13 14 14 14
13 14 14 15 14 13 14 14 15 15 14 14 14 13 13 12 12 12 12 11 11 10 10 11 11 11 11 11 12 12 12 13 13 13 13 12 12 13 13 13 13 13 13
14 14 15 15 15 14 14 15 15 15 15 14 14 13 13 12 12 11 11 11 11 11 11 12 12 13 13 13 13 13 12 12 13 13 13 13 12 12 12 13 13 13 14
15 15 16 16 15 15 15 15 14 14 14 14 13 13 13 13 12 12 11 12 11 11 12 12 13 13 13 14 13 13 12 13 13 13 13 13 14 14 14 14 15 15 15
16 16 16 16 16 15 15 15 14 14 13 13 13 13 13 13 12 12 12 12 12 13 13 13 13 13 13 14 14 14 14 13 14 14 14 15 15 16 16 17 17 16 16
17 16 17 17 17 16 16 16 15 15 14 14 14 14 14 13 13 13 14 13 14 14 14 13 13 13 14 15 15 15 15 15 15 15 15 16 17 17 17 17 18 18 17
17 17 17 18 17 17 17 16 16 16 15 15 15 14 14 13 14 14 15 14 15 15 14 14 14 14 15 15 16 16 16 16 16 17 17 17 18 18 18 18 19 19 19

GEFSSE_500_meanwind_384.txt.gz
Wind_Speed
2 3 3 3 3 4 4 5 5 6 6 6 6 6 5 5 5 5 5 5 6 6 7 7 7 7 6 6 7 7 7 6 6 6 6 6 5 5 4 4 5 4 4
2 3 3 3 4 5 5 5 5 5 6 6 6 6 6 6 4 4 4 6 7 7 7 7 7 8 7 7 6 7 7 7 6 7 7 7 6 5 5 5 6 5 6
3 3 3 4 4 5 5 5 5 5 6 6 6 6 6 6 4 3 5 6 7 8 8 8 8 8 8 8 8 9 8 7 7 7 8 7 7 7 7 7 6 6 7
3 4 4 4 5 5 5 6 6 6 6 6 7 7 8 6 6 5 5 5 7 8 9 10 9 9 9 9 9 9 9 8 8 9 8 8 8 7 8 8 8 7 7
4 4 5 5 5 5 6 6 6 7 7 7 7 7 7 5 5 5 6 7 7 8 9 10 10 10 10 10 10 10 10 10 9 9 10 10 9 9 9 9 10 9 9
4 5 5 5 5 5 6 7 7 7 7 8 8 7 7 5 5 6 7 7 7 8 9 10 11 11 11 12 12 11 11 10 11 11 11 11 11 11 11 11 11 11 10
5 5 5 5 5 6 6 7 7 7 7 8 8 7 6 6 6 6 6 7 7 7 8 9 10 10 11 12 12 12 11 11 11 12 12 11 11 11 12 12 11 11 11
5 6 6 6 6 7 7 7 8 8 8 8 7 6 6 6 5 6 6 7 7 8 9 9 10 11 11 12 12 12 12 11 11 11 11 10 11 12 11 12 11 11 11
6 7 7 7 7 8 8 9 9 8 8 8 7 7 6 6 6 5 6 7 7 8 9 10 11 11 11 11 12 12 12 11 10 10 10 9 9 10 10 10 10 10 10
7 7 8 8 8 9 9 9 9 9 9 8 8 7 7 7 7 7 7 7 7 8 9 10 10 11 11 11 11 11 11 11 10 10 10 9 9 9 9 9 9 9 10
8 8 8 8 9 9 9 8 8 8 8 8 8 8 7 7 8 8 8 8 8 8 8 9 9 10 10 10 11 11 11 11 9 10 10 9 9 9 9 9 9 9 9
8 8 8 8 8 8 8 7 7 8 8 9 8 8 8 8 8 8 8 8 8 8 8 8 9 10 10 10 11 11 10 10 10 9 9 9 10 9 8 9 9 9 8
8 8 8 8 8 8 7 8 8 8 8 9 9 9 9 9 9 9 8 8 8 8 7 7 9 11 10 10 10 11 10 10 10 10 10 10 10 10 9 8 9 9 8
8 8 8 8 8 8 8 8 8 9 9 9 10 9 9 9 9 9 9 9 9 8 8 7 8 10 10 11 11 11 11 11 11 11 11 10 10 9 9 8 8 8 8
8 8 8 8 9 9 9 8 9 9 10 10 10 9 9 8 8 8 9 9 8 8 8 8 8 8 9 10 10 10 11 11 11 11 10 10 10 10 9 9 9 9 8
9 9 9 9 9 9 10 10 10 11 11 10 10 10 10 9 9 9 9 9 9 8 8 8 8 8 9 9 10 10 10 10 10 10 10 11 11 10 8 8 9 9 9
9 9 9 9 10 10 10 11 11 12 12 11 11 11 11 10 10 10 10 9 9 9 9 8 8 9 9 9 10 10 10 10 10 9 9 10 10 9 8 8 8 9 8
9 10 10 10 10 10 11 11 12 12 12 11 11 11 11 11 11 11 10 10 9 9 9 8 9 8 8 9 9 9 9 9 9 9 9 9 9 9 9 9 9 9 9
10 10 11 11 11 11 11 11 11 11 11 11 11 11 11 11 11 11 11 11 10 10 9 9 9 8 9 9 9 9 9 9 9 8 9 9 9 9 9 10 10 10 10
12 12 11 11 11 11 11 12 12 11 11 11 10 10 11 11 10 10 10 10 10 10 10 10 10 10 9 9 9 9 9 9 9 9 9 10 10 10 9 10 10 10 10
13 13 12 12 12 12 12 12 12 12 12 11 11 11 10 11 10 10 9 10 10 10 10 10 10 10 10 9 9 9 9 9 10 10 10 10 10 10 11 11 11 11 11
12 13 13 13 12 13 13 13 13 13 13 13 12 12 12 11 11 11 10 10 10 10 10 10 9 10 10 10 10 10 10 10 10 10 10 10 11 10 11 11 11 12 12
13 13 13 13 14 14 14 14 14 14 14 14 14 14 14 13 13 12 12 11 11 11 11 10 10 10 10 10 11 11 11 11 11 11 11 11 12 12 12 12 13 13 13
14 15 15 14 15 15 14 14 14 14 14 14 14 14 15 14 13 13 12 12 12 12 12 12 11 11 11 12 12 12 12 12 13 12 12 12 12 13 14 14 14 14 15
14 15 15 15 15 15 15 15 15 15 15 15 15 15 15 15 15 14 13 13 14 13 13 13 13 12 12 13 13 13 13 13 13 13 13 14 14 14 15 16 16 16 16
16 16 16 16 16 16 16 16 16 16 16 16 15 15 15 15 15 14 14 14 15 14 14 14 14 14 14 14 14 14 14 14 14 14 15 15 15 16 17 17 18 18 18